Time,TemperatureF,DewpointF,PressureIn,WindDirection,WindDirectionDegrees,WindSpeedMPH,WindSpeedGustMPH,Humidity,HourlyPrecipIn,Conditions,Clouds,dailyrainin,SoftwareType,DateUTC
2013-01-03 00:03:00,15.0,15.0,30.19,SW,230,0.0,0.0,99,0.00,,,0.00,,2013-01-03 05:03:00,
2013-01-03 00:12:00,16.0,16.0,30.19,SW,230,0.0,0.0,99,0.00,,,0.00,,2013-01-03 05:12:00,
2013-01-03 00:23:00,16.0,16.0,30.19,SW,230,0.0,0.0,99,0.00,,,0.00,,2013-01-03 05:23:00,
2013-01-03 00:33:00,16.0,16.0,30.18,SW,230,0.0,0.0,99,0.00,,,0.00,,2013-01-03 05:33:00,
2013-01-03 00:42:00,16.0,16.0,30.18,SW,230,0.0,0.0,99,0.00,,,0.00,,2013-01-03 05:42:00,
2013-01-03 00:53:00,16.0,16.0,30.18,SW,230,0.0,0.0,99,0.00,,,0.00,,2013-01-03 05:53:00,
2013-01-03 01:02:00,16.0,16.0,30.18,SW,230,0.0,0.0,99,0.00,,,0.00,,2013-01-03 06:02:00,
2013-01-03 01:12:00,16.0,16.0,30.18,SW,230,0.0,0.0,99,0.00,,,0.00,,2013-01-03 06:12:00,
2013-01-03 01:22:00,15.0,15.0,30.17,SW,230,0.0,0.0,99,0.00,,,0.00,,2013-01-03 06:22:00,
2013-01-03 01:33:00,14.0,14.0,30.18,SW,230,0.0,0.0,99,0.00,,,0.00,,2013-01-03 06:33:00,
2013-01-03 01:42:00,14.0,14.0,30.18,SW,230,0.0,0.0,99,0.00,,,0.00,,2013-01-03 06:42:00,
2013-01-03 01:53:00,13.0,13.0,30.17,SW,230,0.0,0.0,99,0.00,,,0.00,,2013-01-03 06:53:00,
2013-01-03 02:02:00,13.0,13.0,30.18,SW,230,0.0,0.0,99,0.00,,,0.00,,2013-01-03 07:02:00,
2013-01-03 02:12:00,13.0,13.0,30.18,SW,230,0.0,0.0,99,0.00,,,0.00,,2013-01-03 07:12:00,
2013-01-03 02:22:00,12.0,12.0,30.18,SW,230,0.0,0.0,99,0.00,,,0.00,,2013-01-03 07:22:00,
2013-01-03 02:33:00,11.0,11.0,30.18,SW,230,0.0,0.0,99,0.00,,,0.00,,2013-01-03 07:33:00,
2013-01-03 02:43:00,11.0,11.0,30.18,SW,230,0.0,0.0,99,0.00,,,0.00,,2013-01-03 07:43:00,
2013-01-03 02:53:00,11.0,11.0,30.18,SW,230,0.0,0.0,99,0.00,,,0.00,,2013-01-03 07:53:00,
2013-01-03 03:02:00,10.0,10.0,30.18,SW,230,0.0,0.0,99,0.00,,,0.00,,2013-01-03 08:02:00,
2013-01-03 03:12:00,10.0,10.0,30.18,SW,230,0.0,0.0,99,0.00,,,0.00,,2013-01-03 08:12:00,
2013-01-03 03:22:00,10.0,10.0,30.18,SW,230,0.0,0.0,99,0.00,,,0.00,,2013-01-03 08:22:00,
2013-01-03 03:33:00,10.0,10.0,30.18,SW,230,0.0,0.0,99,0.00,,,0.00,,2013-01-03 08:33:00,
2013-01-03 03:43:00,10.0,10.0,30.18,SW,230,0.0,0.0,99,0.00,,,0.00,,2013-01-03 08:43:00,
2013-01-03 03:53:00,10.0,10.0,30.18,SW,230,0.0,0.0,99,0.00,,,0.00,,2013-01-03 08:53:00,
2013-01-03 04:02:00,10.0,10.0,30.17,SW,230,0.0,0.0,99,0.00,,,0.00,,2013-01-03 09:02:00,
2013-01-03 04:12:00,10.0,10.0,30.17,SW,230,0.0,0.0,99,0.00,,,0.00,,2013-01-03 09:12:00,
2013-01-03 04:22:00,9.0,9.0,30.17,SW,230,0.0,0.0,99,0.00,,,0.00,,2013-01-03 09:22:00,
2013-01-03 04:33:00,9.0,9.0,30.17,SW,230,0.0,0.0,99,0.00,,,0.00,,2013-01-03 09:33:00,
2013-01-03 04:43:00,9.0,9.0,30.17,SW,230,0.0,0.0,99,0.00,,,0.00,,2013-01-03 09:43:00,
2013-01-03 04:53:00,9.0,9.0,30.16,SW,230,0.0,0.0,99,0.00,,,0.00,,2013-01-03 09:53:00,
2013-01-03 05:02:00,9.0,9.0,30.16,SW,230,0.0,0.0,99,0.00,,,0.00,,2013-01-03 10:02:00,
2013-01-03 05:12:00,9.0,9.0,30.16,SW,230,0.0,0.0,99,0.00,,,0.00,,2013-01-03 10:12:00,
2013-01-03 05:22:00,9.0,9.0,30.15,SW,230,0.0,0.0,99,0.00,,,0.00,,2013-01-03 10:22:00,
2013-01-03 05:33:00,9.0,9.0,30.16,SW,230,0.0,0.0,99,0.00,,,0.00,,2013-01-03 10:33:00,
2013-01-03 05:43:00,9.0,9.0,30.16,SW,230,0.0,0.0,99,0.00,,,0.00,,2013-01-03 10:43:00,
2013-01-03 05:53:00,10.0,10.0,30.16,SW,230,0.0,0.0,99,0.00,,,0.00,,2013-01-03 10:53:00,
2013-01-03 06:02:00,10.0,10.0,30.16,SW,230,0.0,0.0,99,0.00,,,0.00,,2013-01-03 11:02:00,
2013-01-03 06:12:00,10.0,10.0,30.16,SW,230,0.0,0.0,99,0.00,,,0.00,,2013-01-03 11:12:00,
2013-01-03 06:23:00,10.0,10.0,30.16,SW,230,0.0,0.0,99,0.00,,,0.00,,2013-01-03 11:23:00,
2013-01-03 06:33:00,10.0,10.0,30.15,SW,230,0.0,0.0,99,0.00,,,0.00,,2013-01-03 11:33:00,
2013-01-03 06:43:00,10.0,10.0,30.15,SW,230,0.0,0.0,99,0.00,,,0.00,,2013-01-03 11:43:00,
2013-01-03 06:53:00,10.0,10.0,30.16,SW,230,0.0,0.0,99,0.00,,,0.00,,2013-01-03 11:53:00,
2013-01-03 07:03:00,10.0,10.0,30.16,SW,230,0.0,0.0,99,0.00,,,0.00,,2013-01-03 12:03:00,
2013-01-03 07:12:00,10.0,10.0,30.16,SW,230,0.0,0.0,99,0.00,,,0.00,,2013-01-03 12:12:00,
2013-01-03 07:22:00,11.0,11.0,30.16,SSE,151,0.0,11.0,99,0.00,,,0.00,,2013-01-03 12:22:00,
2013-01-03 07:33:00,12.0,12.0,30.15,SSE,151,0.0,0.0,99,0.00,,,0.00,,2013-01-03 12:33:00,
2013-01-03 07:43:00,12.0,12.0,30.15,SSE,151,0.0,0.0,99,0.00,,,0.00,,2013-01-03 12:43:00,
2013-01-03 07:53:00,12.0,12.0,30.15,SSE,151,0.0,0.0,99,0.00,,,0.00,,2013-01-03 12:53:00,
2013-01-03 08:02:00,12.0,12.0,30.15,SE,126,0.0,11.0,99,0.00,,,0.00,,2013-01-03 13:02:00,
2013-01-03 08:13:00,12.0,12.0,30.15,SE,126,0.0,11.0,99,0.00,,,0.00,,2013-01-03 13:13:00,
2013-01-03 08:22:00,12.0,12.0,30.14,SE,143,0.0,2.0,99,0.00,,,0.00,,2013-01-03 13:22:00,
2013-01-03 08:33:00,12.0,12.0,30.14,SSE,164,0.0,10.0,99,0.00,,,0.00,,2013-01-03 13:33:00,
2013-01-03 08:43:00,12.0,12.0,30.14,SSE,164,0.0,10.0,99,0.00,,,0.00,,2013-01-03 13:43:00,
2013-01-03 08:53:00,12.0,12.0,30.13,SSE,164,0.0,0.0,99,0.00,,,0.00,,2013-01-03 13:53:00,
2013-01-03 09:03:00,12.0,12.0,30.13,SSE,164,0.0,0.0,99,0.00,,,0.00,,2013-01-03 14:03:00,
2013-01-03 09:12:00,12.0,12.0,30.13,SSE,164,0.0,0.0,99,0.00,,,0.00,,2013-01-03 14:12:00,
2013-01-03 09:23:00,15.0,15.0,30.14,South,188,0.0,10.0,99,0.00,,,0.00,,2013-01-03 14:23:00,
2013-01-03 09:33:00,16.0,16.0,30.14,SSE,167,0.0,12.0,99,0.00,,,0.00,,2013-01-03 14:33:00,
2013-01-03 09:43:00,16.0,16.0,30.14,SSE,167,0.0,12.0,99,0.00,,,0.00,,2013-01-03 14:43:00,
2013-01-03 09:53:00,17.0,17.0,30.14,SSW,199,0.0,11.0,99,0.00,,,0.00,,2013-01-03 14:53:00,
2013-01-03 10:03:00,17.0,17.0,30.14,SSE,151,0.0,11.0,99,0.00,,,0.00,,2013-01-03 15:03:00,
2013-01-03 10:12:00,20.0,19.0,30.13,South,174,0.0,12.0,97,0.00,,,0.00,,2013-01-03 15:12:00,
2013-01-03 10:23:00,20.0,19.0,30.13,South,174,0.0,12.0,97,0.00,,,0.00,,2013-01-03 15:23:00,
2013-01-03 10:33:00,20.0,19.0,30.13,WSW,241,0.0,13.0,95,0.00,,,0.00,,2013-01-03 15:33:00,
2013-01-03 10:43:00,20.0,19.0,30.13,WSW,241,0.0,13.0,95,0.00,,,0.00,,2013-01-03 15:43:00,
2013-01-03 10:53:00,21.0,20.0,30.13,SSW,199,0.0,13.0,95,0.00,,,0.00,,2013-01-03 15:53:00,
2013-01-03 11:03:00,21.0,19.0,30.13,SSW,201,2.0,13.0,92,0.00,,,0.00,,2013-01-03 16:03:00,
2013-01-03 11:12:00,21.0,19.0,30.13,SSW,201,2.0,13.0,92,0.00,,,0.00,,2013-01-03 16:12:00,
2013-01-03 11:23:00,22.0,20.0,30.12,SSW,192,3.0,12.0,90,0.00,,,0.00,,2013-01-03 16:23:00,
2013-01-03 11:33:00,23.0,21.0,30.12,SSW,198,5.0,12.0,90,0.00,,,0.00,,2013-01-03 16:33:00,
2013-01-03 11:43:00,23.0,21.0,30.12,SSW,198,5.0,12.0,90,0.00,,,0.00,,2013-01-03 16:43:00,
2013-01-03 11:53:00,24.0,21.0,30.11,SSE,161,4.0,12.0,88,0.00,,,0.00,,2013-01-03 16:53:00,
2013-01-03 12:03:00,24.0,21.0,30.11,SSE,168,0.0,11.0,87,0.00,,,0.00,,2013-01-03 17:03:00,
2013-01-03 12:12:00,24.0,21.0,30.11,SSE,168,0.0,11.0,87,0.00,,,0.00,,2013-01-03 17:12:00,
2013-01-03 12:23:00,26.0,22.0,30.11,SSE,154,0.0,13.0,86,0.00,,,0.00,,2013-01-03 17:23:00,
2013-01-03 12:33:00,27.0,23.0,30.10,SSW,208,5.0,13.0,85,0.00,,,0.00,,2013-01-03 17:33:00,
2013-01-03 12:43:00,27.0,23.0,30.10,SSW,208,5.0,13.0,85,0.00,,,0.00,,2013-01-03 17:43:00,
2013-01-03 12:53:00,27.0,22.0,30.10,SSW,205,7.0,12.0,82,0.00,,,0.00,,2013-01-03 17:53:00,
2013-01-03 13:03:00,28.0,23.0,30.09,SSE,156,0.0,11.0,82,0.00,,,0.00,,2013-01-03 18:03:00,
2013-01-03 13:13:00,28.0,23.0,30.09,SSE,156,0.0,11.0,82,0.00,,,0.00,,2013-01-03 18:13:00,
2013-01-03 13:22:00,28.0,23.0,30.08,SW,236,4.0,14.0,81,0.00,,,0.00,,2013-01-03 18:22:00,
2013-01-03 13:33:00,28.0,23.0,30.08,SSW,199,5.0,13.0,80,0.00,,,0.00,,2013-01-03 18:33:00,
2013-01-03 13:43:00,28.0,23.0,30.08,SSW,199,5.0,13.0,80,0.00,,,0.00,,2013-01-03 18:43:00,
2013-01-03 13:53:00,28.0,23.0,30.08,SSW,199,0.0,13.0,80,0.00,,,0.00,,2013-01-03 18:53:00,
2013-01-03 14:03:00,28.0,23.0,30.08,SSW,205,0.0,12.0,81,0.00,,,0.00,,2013-01-03 19:03:00,
2013-01-03 14:12:00,28.0,23.0,30.08,SSW,205,0.0,12.0,81,0.00,,,0.00,,2013-01-03 19:12:00,
2013-01-03 14:56:00,28.0,24.0,30.08,SSW,192,3.0,12.0,86,0.00,,,0.00,,2013-01-03 19:56:00,
2013-01-03 15:03:00,28.0,25.0,30.08,SW,215,4.0,15.0,87,0.00,,,0.00,,2013-01-03 20:03:00,
2013-01-03 15:12:00,28.0,25.0,30.08,SW,215,4.0,15.0,87,0.00,,,0.00,,2013-01-03 20:12:00,
2013-01-03 15:23:00,28.0,25.0,30.09,SW,232,6.0,15.0,90,0.00,,,0.00,,2013-01-03 20:23:00,
2013-01-03 15:33:00,27.0,25.0,30.09,SSW,206,3.0,16.0,92,0.00,,,0.00,,2013-01-03 20:33:00,
2013-01-03 15:43:00,27.0,25.0,30.09,SSW,206,3.0,16.0,92,0.00,,,0.00,,2013-01-03 20:43:00,
2013-01-03 15:53:00,27.0,25.0,30.09,SW,219,5.0,12.0,92,0.00,,,0.00,,2013-01-03 20:53:00,
2013-01-03 16:02:00,27.0,25.0,30.09,WSW,248,5.0,14.0,93,0.00,,,0.00,,2013-01-03 21:02:00,
2013-01-03 16:12:00,27.0,25.0,30.09,WSW,248,5.0,14.0,93,0.00,,,0.00,,2013-01-03 21:12:00,
2013-01-03 16:23:00,27.0,26.0,30.10,SSW,195,6.0,12.0,94,0.00,,,0.00,,2013-01-03 21:23:00,
2013-01-03 16:37:00,27.0,26.0,30.11,WSW,241,6.0,13.0,95,0.00,,,0.00,,2013-01-03 21:37:00,
2013-01-03 16:50:00,27.0,26.0,30.11,WSW,241,6.0,13.0,95,0.00,,,0.00,,2013-01-03 21:50:00,
2013-01-03 17:03:00,26.0,25.0,30.11,SW,217,0.0,13.0,96,0.00,,,0.00,,2013-01-03 22:03:00,
2013-01-03 17:12:00,26.0,25.0,30.11,SW,217,0.0,13.0,96,0.00,,,0.00,,2013-01-03 22:12:00,
2013-01-03 17:22:00,26.0,26.0,30.12,WSW,243,5.0,13.0,98,0.00,,,0.00,,2013-01-03 22:22:00,
2013-01-03 17:33:00,26.0,26.0,30.13,SW,217,0.0,13.0,98,0.00,,,0.00,,2013-01-03 22:33:00,
2013-01-03 17:43:00,26.0,26.0,30.13,SW,217,0.0,13.0,98,0.00,,,0.00,,2013-01-03 22:43:00,
2013-01-03 17:53:00,26.0,26.0,30.13,SSW,203,5.0,15.0,99,0.00,,,0.00,,2013-01-03 22:53:00,
2013-01-03 18:03:00,26.0,26.0,30.13,WSW,250,0.0,15.0,99,0.00,,,0.00,,2013-01-03 23:03:00,
2013-01-03 18:12:00,26.0,26.0,30.13,WSW,250,0.0,15.0,99,0.00,,,0.00,,2013-01-03 23:12:00,
2013-01-03 18:22:00,26.0,26.0,30.14,West,260,4.0,14.0,99,0.00,,,0.00,,2013-01-03 23:22:00,
2013-01-03 18:33:00,26.0,26.0,30.14,WSW,258,4.0,11.0,99,0.00,,,0.00,,2013-01-03 23:33:00,
2013-01-03 18:43:00,26.0,26.0,30.14,WSW,258,4.0,11.0,99,0.00,,,0.00,,2013-01-03 23:43:00,
2013-01-03 18:53:00,26.0,26.0,30.14,SSW,203,0.0,12.0,99,0.00,,,0.00,,2013-01-03 23:53:00,
2013-01-03 19:03:00,26.0,26.0,30.14,South,188,4.0,14.0,99,0.00,,,0.00,,2013-01-04 00:03:00,
2013-01-03 19:12:00,26.0,26.0,30.14,South,188,4.0,14.0,99,0.00,,,0.00,,2013-01-04 00:12:00,
2013-01-03 19:22:00,26.0,26.0,30.14,South,188,4.0,14.0,99,0.00,,,0.00,,2013-01-04 00:22:00,
2013-01-03 19:33:00,26.0,26.0,30.14,South,188,4.0,14.0,99,0.00,,,0.00,,2013-01-04 00:33:00,